Time,TemperatureF,DewpointF,PressureIn,WindDirection,WindDirectionDegrees,WindSpeedMPH,WindSpeedGustMPH,Humidity,HourlyPrecipIn,Conditions,Clouds,dailyrainin,SoftwareType,DateUTC
2013-05-06 00:00:00,59.0,45.2,29.94,NNE,19,5.0,7.0,60,0.00,,SKC,0.00,VWS V14.01,2013-05-06 04:00:00,
2013-05-06 00:01:00,59.0,45.2,29.94,NNE,19,5.0,7.0,60,0.00,,SKC,0.00,VWS V14.01,2013-05-06 04:01:00,
2013-05-06 00:02:00,59.0,45.2,29.94,NE,37,4.0,5.0,60,0.00,,SKC,0.00,VWS V14.01,2013-05-06 04:02:00,
2013-05-06 00:07:00,59.0,45.2,29.94,NE,38,5.0,5.0,60,0.00,,SKC,0.00,VWS V14.01,2013-05-06 04:07:00,
2013-05-06 00:12:00,58.9,45.1,29.94,NNE,30,4.0,8.0,60,0.00,,SKC,0.00,VWS V14.01,2013-05-06 04:12:00,
2013-05-06 00:17:00,58.9,45.1,29.93,NNE,30,4.0,8.0,60,0.00,,SKC,0.00,VWS V14.01,2013-05-06 04:17:00,
2013-05-06 00:22:00,59.0,45.2,29.93,NNE,24,4.0,7.0,60,0.00,,SKC,0.00,VWS V14.01,2013-05-06 04:22:00,
2013-05-06 00:27:00,59.0,45.2,29.94,NE,51,7.0,7.0,60,0.00,,SKC,0.00,VWS V14.01,2013-05-06 04:27:00,
2013-05-06 00:32:00,59.0,45.2,29.93,NNE,30,4.0,6.0,60,0.00,,SKC,0.00,VWS V14.01,2013-05-06 04:32:00,
2013-05-06 00:37:00,59.0,45.2,29.93,NNE,14,5.0,7.0,60,0.00,,SKC,0.00,VWS V14.01,2013-05-06 04:37:00,
2013-05-06 00:42:00,59.0,44.7,29.93,NE,40,5.0,8.0,59,0.00,,SKC,0.00,VWS V14.01,2013-05-06 04:42:00,
2013-05-06 00:47:00,59.0,44.7,29.93,NNE,20,5.0,9.0,59,0.00,,SKC,0.00,VWS V14.01,2013-05-06 04:47:00,
2013-05-06 00:52:00,59.0,44.7,29.94,NE,34,3.0,7.0,59,0.00,,SKC,0.00,VWS V14.01,2013-05-06 04:52:00,
2013-05-06 00:57:00,58.8,44.5,29.93,NE,47,3.0,7.0,59,0.00,,SKC,0.00,VWS V14.01,2013-05-06 04:57:00,
2013-05-06 01:02:00,58.6,44.3,29.94,NNE,32,5.0,7.0,59,0.00,,SKC,0.00,VWS V14.01,2013-05-06 05:02:00,
2013-05-06 01:08:00,58.5,44.7,29.94,NE,35,7.0,7.0,60,0.00,,SKC,0.00,VWS V14.01,2013-05-06 05:08:00,
2013-05-06 01:13:00,58.4,44.6,29.94,NE,55,7.0,9.0,60,0.00,,SKC,0.00,VWS V14.01,2013-05-06 05:13:00,
2013-05-06 01:18:00,58.3,44.5,29.94,NE,38,5.0,9.0,60,0.00,,SKC,0.00,VWS V14.01,2013-05-06 05:18:00,
2013-05-06 01:23:00,58.2,44.4,29.93,NNE,32,5.0,8.0,60,0.00,,SKC,0.00,VWS V14.01,2013-05-06 05:23:00,
2013-05-06 01:28:00,58.2,44.8,29.94,NE,36,6.0,6.0,61,0.00,,SKC,0.00,VWS V14.01,2013-05-06 05:28:00,
2013-05-06 01:33:00,58.0,44.6,29.94,NNE,22,7.0,9.0,61,0.00,,SKC,0.00,VWS V14.01,2013-05-06 05:33:00,
2013-05-06 01:38:00,58.0,44.6,29.94,NE,46,10.0,10.0,61,0.00,,SKC,0.00,VWS V14.01,2013-05-06 05:38:00,
2013-05-06 01:43:00,57.9,44.5,29.94,ENE,59,3.0,5.0,61,0.00,,SKC,0.00,VWS V14.01,2013-05-06 05:43:00,
2013-05-06 01:48:00,57.8,44.5,29.94,NE,38,5.0,8.0,61,0.00,,SKC,0.00,VWS V14.01,2013-05-06 05:48:00,
2013-05-06 01:53:00,57.7,44.4,29.94,NE,46,4.0,7.0,61,0.00,,SKC,0.00,VWS V14.01,2013-05-06 05:53:00,
2013-05-06 01:58:00,57.6,44.7,29.94,NE,50,3.0,6.0,62,0.00,,SKC,0.00,VWS V14.01,2013-05-06 05:58:00,
2013-05-06 02:03:00,57.4,44.5,29.93,NE,47,6.0,6.0,62,0.00,,SKC,0.00,VWS V14.01,2013-05-06 06:03:00,
2013-05-06 02:08:00,57.2,44.3,29.93,ENE,61,7.0,7.0,62,0.00,,SKC,0.00,VWS V14.01,2013-05-06 06:08:00,
2013-05-06 02:13:00,57.1,44.2,29.93,NE,56,5.0,9.0,62,0.00,,SKC,0.00,VWS V14.01,2013-05-06 06:13:00,
2013-05-06 02:18:00,57.0,44.5,29.93,NNE,28,7.0,7.0,63,0.00,,SKC,0.00,VWS V14.01,2013-05-06 06:18:00,
2013-05-06 02:23:00,56.8,44.3,29.93,NE,43,3.0,5.0,63,0.00,,SKC,0.00,VWS V14.01,2013-05-06 06:23:00,
2013-05-06 02:28:00,56.7,44.3,29.93,NNE,26,4.0,8.0,63,0.00,,SKC,0.00,VWS V14.01,2013-05-06 06:28:00,
2013-05-06 02:33:00,56.6,44.2,29.93,NE,41,5.0,8.0,63,0.00,,SKC,0.00,VWS V14.01,2013-05-06 06:33:00,
2013-05-06 02:38:00,56.5,44.1,29.93,ENE,60,7.0,7.0,63,0.00,,SKC,0.00,VWS V14.01,2013-05-06 06:38:00,
2013-05-06 02:43:00,56.4,44.0,29.93,NE,40,2.0,5.0,63,0.00,,SKC,0.00,VWS V14.01,2013-05-06 06:43:00,
2013-05-06 02:48:00,56.3,43.9,29.93,NE,46,5.0,7.0,63,0.00,,SKC,0.00,VWS V14.01,2013-05-06 06:48:00,
2013-05-06 02:53:00,56.4,44.0,29.93,NE,50,3.0,9.0,63,0.00,,SKC,0.00,VWS V14.01,2013-05-06 06:53:00,
2013-05-06 02:58:00,56.4,44.0,29.92,NE,45,3.0,6.0,63,0.00,,SKC,0.00,VWS V14.01,2013-05-06 06:58:00,
2013-05-06 03:03:00,56.4,44.0,29.92,NE,35,6.0,7.0,63,0.00,,SKC,0.00,VWS V14.01,2013-05-06 07:03:00,
2013-05-06 03:08:00,56.4,43.6,29.93,NE,53,6.0,6.0,62,0.00,,SKC,0.00,VWS V14.01,2013-05-06 07:08:00,
2013-05-06 03:13:00,56.4,43.6,29.92,NE,53,3.0,4.0,62,0.00,,SKC,0.00,VWS V14.01,2013-05-06 07:13:00,
2013-05-06 03:18:00,56.2,43.4,29.92,NE,40,4.0,5.0,62,0.00,,SKC,0.00,VWS V14.01,2013-05-06 07:18:00,
2013-05-06 03:23:00,56.2,43.4,29.92,NE,41,5.0,7.0,62,0.00,,SKC,0.00,VWS V14.01,2013-05-06 07:23:00,
2013-05-06 03:28:00,56.2,43.4,29.92,NE,39,3.0,4.0,62,0.00,,SKC,0.00,VWS V14.01,2013-05-06 07:28:00,
2013-05-06 03:33:00,56.1,43.3,29.92,NE,51,6.0,6.0,62,0.00,,SKC,0.00,VWS V14.01,2013-05-06 07:33:00,
2013-05-06 03:38:00,56.0,43.6,29.92,NE,47,4.0,6.0,63,0.00,,SKC,0.00,VWS V14.01,2013-05-06 07:38:00,
2013-05-06 03:43:00,55.8,43.4,29.92,NE,39,4.0,5.0,63,0.00,,SKC,0.00,VWS V14.01,2013-05-06 07:43:00,
2013-05-06 03:49:00,55.7,43.3,29.92,NNE,28,4.0,6.0,63,0.00,,SKC,0.00,VWS V14.01,2013-05-06 07:49:00,
2013-05-06 03:54:00,55.5,43.5,29.92,NE,36,6.0,6.0,64,0.00,,SKC,0.00,VWS V14.01,2013-05-06 07:54:00,
2013-05-06 03:59:00,55.3,43.8,29.92,NE,52,5.0,6.0,65,0.00,,SKC,0.00,VWS V14.01,2013-05-06 07:59:00,
2013-05-06 04:04:00,55.2,43.7,29.92,ENE,57,2.0,5.0,65,0.00,,SKC,0.00,VWS V14.01,2013-05-06 08:04:00,
2013-05-06 04:09:00,55.0,43.5,29.92,ENE,61,4.0,5.0,65,0.00,,SKC,0.00,VWS V14.01,2013-05-06 08:09:00,
2013-05-06 04:14:00,54.8,43.3,29.92,ENE,57,7.0,7.0,65,0.00,,SKC,0.00,VWS V14.01,2013-05-06 08:14:00,
2013-05-06 04:19:00,54.9,43.4,29.92,NE,46,6.0,6.0,65,0.00,,SKC,0.00,VWS V14.01,2013-05-06 08:19:00,
2013-05-06 04:24:00,55.0,43.1,29.92,NE,47,6.0,6.0,64,0.00,,SKC,0.00,VWS V14.01,2013-05-06 08:24:00,
2013-05-06 04:29:00,55.0,43.1,29.92,ENE,59,2.0,5.0,64,0.00,,SKC,0.00,VWS V14.01,2013-05-06 08:29:00,
2013-05-06 04:34:00,54.8,43.3,29.92,NE,36,2.0,5.0,65,0.00,,SKC,0.00,VWS V14.01,2013-05-06 08:34:00,
2013-05-06 04:39:00,54.5,43.4,29.92,NE,42,2.0,3.0,66,0.00,,SKC,0.00,VWS V14.01,2013-05-06 08:39:00,
2013-05-06 04:44:00,54.3,42.8,29.92,NE,54,2.0,6.0,65,0.00,,SKC,0.00,VWS V14.01,2013-05-06 08:44:00,
2013-05-06 04:49:00,54.2,43.1,29.92,NE,49,3.0,5.0,66,0.00,,SKC,0.00,VWS V14.01,2013-05-06 08:49:00,
2013-05-06 04:54:00,54.1,43.0,29.93,NE,46,3.0,5.0,66,0.00,,SKC,0.00,VWS V14.01,2013-05-06 08:54:00,
2013-05-06 04:59:00,53.9,43.2,29.93,NE,52,4.0,5.0,67,0.00,,SKC,0.00,VWS V14.01,2013-05-06 08:59:00,
2013-05-06 05:04:00,53.7,42.6,29.92,ENE,58,7.0,7.0,66,0.00,,SKC,0.00,VWS V14.01,2013-05-06 09:04:00,
2013-05-06 05:09:00,53.7,42.6,29.92,NE,55,2.0,5.0,66,0.00,,SKC,0.00,VWS V14.01,2013-05-06 09:09:00,
2013-05-06 05:14:00,53.6,42.5,29.93,NE,56,2.0,2.0,66,0.00,,SKC,0.00,VWS V14.01,2013-05-06 09:14:00,
2013-05-06 05:19:00,53.5,42.8,29.92,NE,51,2.0,4.0,67,0.00,,SKC,0.00,VWS V14.01,2013-05-06 09:19:00,
2013-05-06 05:24:00,53.3,42.6,29.93,NE,54,3.0,3.0,67,0.00,,SKC,0.00,VWS V14.01,2013-05-06 09:24:00,
2013-05-06 05:29:00,53.2,42.5,29.93,ENE,59,1.0,2.0,67,0.00,,SKC,0.00,VWS V14.01,2013-05-06 09:29:00,
2013-05-06 05:34:00,53.1,42.5,29.93,NE,49,2.0,4.0,67,0.00,,SKC,0.00,VWS V14.01,2013-05-06 09:34:00,
2013-05-06 05:39:00,53.0,42.3,29.93,NE,38,2.0,5.0,67,0.00,,SKC,0.00,VWS V14.01,2013-05-06 09:39:00,
2013-05-06 05:44:00,53.1,42.5,29.93,NE,42,3.0,4.0,67,0.00,,SKC,0.00,VWS V14.01,2013-05-06 09:44:00,
2013-05-06 05:49:00,53.2,42.2,29.93,NE,43,2.0,3.0,66,0.00,,SKC,0.00,VWS V14.01,2013-05-06 09:49:00,
2013-05-06 05:54:00,53.2,42.2,29.93,NNE,26,3.0,4.0,66,0.00,,SKC,0.00,VWS V14.01,2013-05-06 09:54:00,
2013-05-06 05:59:00,53.1,42.1,29.93,ENE,57,4.0,4.0,66,0.00,,SKC,0.00,VWS V14.01,2013-05-06 09:59:00,
2013-05-06 06:04:00,53.0,42.0,29.93,NE,34,3.0,3.0,66,0.00,,SKC,0.00,VWS V14.01,2013-05-06 10:04:00,
2013-05-06 06:09:00,53.0,42.0,29.93,NE,49,2.0,5.0,66,0.00,,SKC,0.00,VWS V14.01,2013-05-06 10:09:00,
2013-05-06 06:14:00,52.9,41.9,29.93,NE,55,2.0,3.0,66,0.00,,SKC,0.00,VWS V14.01,2013-05-06 10:14:00,
2013-05-06 06:19:00,52.7,41.7,29.93,ENE,61,2.0,3.0,66,0.00,,SKC,0.00,VWS V14.01,2013-05-06 10:19:00,
2013-05-06 06:24:00,52.6,42.0,29.94,NE,53,3.0,3.0,67,0.00,,SKC,0.00,VWS V14.01,2013-05-06 10:24:00,
2013-05-06 06:29:00,52.5,41.9,29.94,NE,48,2.0,4.0,67,0.00,,SKC,0.00,VWS V14.01,2013-05-06 10:29:00,
2013-05-06 06:34:00,52.5,41.9,29.94,NE,40,2.0,5.0,67,0.00,,SKC,0.00,VWS V14.01,2013-05-06 10:34:00,
2013-05-06 06:39:00,52.7,42.1,29.94,NE,44,3.0,7.0,67,0.00,,SKC,0.00,VWS V14.01,2013-05-06 10:39:00,
2013-05-06 06:44:00,52.8,42.2,29.94,ENE,71,2.0,4.0,67,0.00,,SKC,0.00,VWS V14.01,2013-05-06 10:44:00,
2013-05-06 06:50:00,52.9,42.3,29.94,ENE,63,1.0,1.0,67,0.00,,SKC,0.00,VWS V14.01,2013-05-06 10:50:00,
2013-05-06 06:55:00,52.9,42.3,29.95,ENE,59,2.0,8.0,67,0.00,,SKC,0.00,VWS V14.01,2013-05-06 10:55:00,
2013-05-06 07:00:00,53.0,42.3,29.94,NE,51,3.0,5.0,67,0.00,,SKC,0.00,VWS V14.01,2013-05-06 11:00:00,
2013-05-06 07:05:00,53.1,42.5,29.95,East,83,3.0,5.0,67,0.00,,SKC,0.00,VWS V14.01,2013-05-06 11:05:00,
2013-05-06 07:10:00,53.1,42.5,29.95,ENE,68,8.0,8.0,67,0.00,,SKC,0.00,VWS V14.01,2013-05-06 11:10:00,
2013-05-06 07:15:00,53.3,42.2,29.95,ENE,61,3.0,6.0,66,0.00,,SKC,0.00,VWS V14.01,2013-05-06 11:15:00,
2013-05-06 07:20:00,53.4,42.3,29.95,ENE,67,3.0,5.0,66,0.00,,SKC,0.00,VWS V14.01,2013-05-06 11:20:00,
2013-05-06 07:25:00,53.4,42.7,29.95,NE,47,4.0,4.0,67,0.00,,SKC,0.00,VWS V14.01,2013-05-06 11:25:00,
2013-05-06 07:30:00,53.7,43.0,29.95,ENE,57,2.0,5.0,67,0.00,,SKC,0.00,VWS V14.01,2013-05-06 11:30:00,
2013-05-06 07:35:00,54.4,43.7,29.96,NE,42,5.0,5.0,67,0.00,,SKC,0.00,VWS V14.01,2013-05-06 11:35:00,
2013-05-06 07:40:00,54.9,43.4,29.96,NE,42,4.0,5.0,65,0.00,,SKC,0.00,VWS V14.01,2013-05-06 11:40:00,
2013-05-06 07:45:00,55.4,43.8,29.96,NE,46,4.0,5.0,65,0.00,,SKC,0.00,VWS V14.01,2013-05-06 11:45:00,
2013-05-06 07:50:00,55.9,43.9,29.96,NE,39,4.0,6.0,64,0.00,,SKC,0.00,VWS V14.01,2013-05-06 11:50:00,
2013-05-06 07:55:00,56.1,43.7,29.96,NE,35,2.0,5.0,63,0.00,,SKC,0.00,VWS V14.01,2013-05-06 11:55:00,
2013-05-06 08:00:00,56.0,43.6,29.96,NE,39,3.0,7.0,63,0.00,,SKC,0.00,VWS V14.01,2013-05-06 12:00:00,
2013-05-06 08:05:00,55.9,43.1,29.96,ENE,59,4.0,8.0,62,0.00,,SKC,0.00,VWS V14.01,2013-05-06 12:05:00,
2013-05-06 08:10:00,56.2,43.8,29.97,NE,42,3.0,6.0,63,0.00,,SKC,0.00,VWS V14.01,2013-05-06 12:10:00,
2013-05-06 08:15:00,56.7,43.8,29.97,NE,41,5.0,7.0,62,0.00,,SKC,0.00,VWS V14.01,2013-05-06 12:15:00,
2013-05-06 08:20:00,57.0,43.7,29.97,ENE,68,8.0,8.0,61,0.00,,SKC,0.00,VWS V14.01,2013-05-06 12:20:00,
2013-05-06 08:25:00,57.1,43.4,29.97,ENE,59,7.0,8.0,60,0.00,,SKC,0.00,VWS V14.01,2013-05-06 12:25:00,
2013-05-06 08:30:00,57.1,43.8,29.97,NE,46,6.0,8.0,61,0.00,,SKC,0.00,VWS V14.01,2013-05-06 12:30:00,
2013-05-06 08:35:00,57.2,43.9,29.97,NE,34,5.0,7.0,61,0.00,,SKC,0.00,VWS V14.01,2013-05-06 12:35:00,
2013-05-06 08:40:00,57.4,44.1,29.97,NE,43,4.0,4.0,61,0.00,,SKC,0.00,VWS V14.01,2013-05-06 12:40:00,
2013-05-06 08:45:00,57.6,44.3,29.97,ENE,61,4.0,7.0,61,0.00,,SKC,0.00,VWS V14.01,2013-05-06 12:45:00,
2013-05-06 08:50:00,57.7,43.9,29.98,NE,51,4.0,6.0,60,0.00,,SKC,0.00,VWS V14.01,2013-05-06 12:50:00,
2013-05-06 08:55:00,58.3,44.5,29.98,ENE,59,3.0,5.0,60,0.00,,SKC,0.00,VWS V14.01,2013-05-06 12:55:00,
2013-05-06 09:00:00,59.0,44.7,29.98,NE,49,3.0,5.0,59,0.00,,SKC,0.00,VWS V14.01,2013-05-06 13:00:00,
2013-05-06 09:05:00,59.2,44.9,29.98,ENE,68,7.0,7.0,59,0.00,,SKC,0.00,VWS V14.01,2013-05-06 13:05:00,
2013-05-06 09:10:00,59.9,45.5,29.98,ENE,69,2.0,5.0,59,0.00,,SKC,0.00,VWS V14.01,2013-05-06 13:10:00,
2013-05-06 09:15:00,60.8,46.8,29.98,ENE,66,3.0,4.0,60,0.00,,SKC,0.00,VWS V14.01,2013-05-06 13:15:00,
2013-05-06 09:20:00,61.3,46.4,29.98,ENE,57,5.0,5.0,58,0.00,,SKC,0.00,VWS V14.01,2013-05-06 13:20:00,
2013-05-06 09:25:00,61.4,46.0,29.98,ENE,62,4.0,6.0,57,0.00,,SKC,0.00,VWS V14.01,2013-05-06 13:25:00,
2013-05-06 09:30:00,62.0,47.1,29.98,East,86,3.0,5.0,58,0.00,,SKC,0.00,VWS V14.01,2013-05-06 13:30:00,
2013-05-06 09:35:00,62.6,46.7,29.98,ENE,78,5.0,7.0,56,0.00,,SKC,0.00,VWS V14.01,2013-05-06 13:35:00,
2013-05-06 09:41:00,62.8,46.4,29.98,ENE,68,3.0,3.0,55,0.00,,SKC,0.00,VWS V14.01,2013-05-06 13:41:00,
2013-05-06 09:45:00,63.5,47.5,29.98,East,79,5.0,5.0,56,0.00,,SKC,0.00,VWS V14.01,2013-05-06 13:45:00,
2013-05-06 09:51:00,63.7,46.8,29.98,ENE,78,1.0,3.0,54,0.00,,SKC,0.00,VWS V14.01,2013-05-06 13:51:00,
2013-05-06 09:56:00,64.4,47.9,29.98,ENE,62,3.0,4.0,55,0.00,,SKC,0.00,VWS V14.01,2013-05-06 13:56:00,
2013-05-06 10:01:00,64.3,47.8,29.98,NE,47,4.0,4.0,55,0.00,,SKC,0.00,VWS V14.01,2013-05-06 14:01:00,
2013-05-06 10:06:00,64.5,48.0,29.98,NNE,26,4.0,4.0,55,0.00,,SKC,0.00,VWS V14.01,2013-05-06 14:06:00,
2013-05-06 10:11:00,64.9,47.4,29.98,NE,43,3.0,5.0,53,0.00,,SKC,0.00,VWS V14.01,2013-05-06 14:11:00,
2013-05-06 10:16:00,65.0,48.5,29.98,NE,41,5.0,5.0,55,0.00,,SKC,0.00,VWS V14.01,2013-05-06 14:16:00,
2013-05-06 10:21:00,65.0,48.0,29.98,NE,40,3.0,4.0,54,0.00,,SKC,0.00,VWS V14.01,2013-05-06 14:21:00,
2013-05-06 10:26:00,65.0,48.0,29.98,NE,51,4.0,4.0,54,0.00,,SKC,0.00,VWS V14.01,2013-05-06 14:26:00,
2013-05-06 10:31:00,65.4,49.8,29.98,NE,53,2.0,4.0,57,0.00,,SKC,0.00,VWS V14.01,2013-05-06 14:31:00,
2013-05-06 10:36:00,65.7,48.1,29.98,NE,38,2.0,5.0,53,0.00,,SKC,0.00,VWS V14.01,2013-05-06 14:36:00,
2013-05-06 10:41:00,66.2,50.1,29.98,ENE,65,2.0,5.0,56,0.00,,SKC,0.00,VWS V14.01,2013-05-06 14:41:00,
2013-05-06 10:46:00,66.2,49.6,29.98,NE,47,1.0,5.0,55,0.00,,SKC,0.00,VWS V14.01,2013-05-06 14:46:00,
2013-05-06 10:51:00,66.4,48.8,29.98,NNE,32,1.0,3.0,53,0.00,,SKC,0.00,VWS V14.01,2013-05-06 14:51:00,
2013-05-06 10:56:00,66.9,49.2,29.98,NNE,32,3.0,5.0,53,0.00,,SKC,0.00,VWS V14.01,2013-05-06 14:56:00,
2013-05-06 11:01:00,67.1,49.4,29.98,East,84,1.0,5.0,53,0.00,,SKC,0.00,VWS V14.01,2013-05-06 15:01:00,
2013-05-06 11:06:00,67.5,49.8,29.98,ENE,78,5.0,8.0,53,0.00,,SKC,0.00,VWS V14.01,2013-05-06 15:06:00,
2013-05-06 11:11:00,68.0,50.2,29.98,NNW,338,2.0,5.0,53,0.00,,SKC,0.00,VWS V14.01,2013-05-06 15:11:00,
2013-05-06 11:16:00,68.9,50.6,29.98,NE,53,3.0,5.0,52,0.00,,SKC,0.00,VWS V14.01,2013-05-06 15:16:00,
2013-05-06 11:21:00,68.9,51.6,29.98,ESE,108,7.0,8.0,54,0.00,,SKC,0.00,VWS V14.01,2013-05-06 15:21:00,
2013-05-06 11:26:00,68.6,50.8,29.98,East,88,5.0,9.0,53,0.00,,SKC,0.00,VWS V14.01,2013-05-06 15:26:00,
2013-05-06 11:31:00,68.6,52.3,29.97,NE,54,3.0,5.0,56,0.00,,SKC,0.00,VWS V14.01,2013-05-06 15:31:00,
2013-05-06 11:36:00,69.0,50.7,29.97,East,95,10.0,10.0,52,0.00,,SKC,0.00,VWS V14.01,2013-05-06 15:36:00,
2013-05-06 11:41:00,69.1,51.3,29.97,ENE,72,1.0,5.0,53,0.00,,SKC,0.00,VWS V14.01,2013-05-06 15:41:00,
2013-05-06 11:46:00,69.8,51.4,29.97,East,98,7.0,10.0,52,0.00,,SKC,0.00,VWS V14.01,2013-05-06 15:46:00,
2013-05-06 11:51:00,69.5,51.6,29.97,NNE,30,0.0,4.0,53,0.00,,SKC,0.00,VWS V14.01,2013-05-06 15:51:00,
2013-05-06 11:56:00,70.0,52.1,29.97,ESE,106,7.0,7.0,53,0.00,,SKC,0.00,VWS V14.01,2013-05-06 15:56:00,
2013-05-06 12:01:00,70.0,52.1,29.97,East,88,6.0,10.0,53,0.00,,SKC,0.00,VWS V14.01,2013-05-06 16:01:00,
2013-05-06 12:06:00,69.4,51.5,29.97,East,85,2.0,6.0,53,0.00,,SKC,0.00,VWS V14.01,2013-05-06 16:06:00,
2013-05-06 12:11:00,69.2,51.9,29.97,East,84,6.0,9.0,54,0.00,,SKC,0.00,VWS V14.01,2013-05-06 16:11:00,
2013-05-06 12:16:00,69.4,53.0,29.97,ENE,66,7.0,8.0,56,0.00,,SKC,0.00,VWS V14.01,2013-05-06 16:16:00,
2013-05-06 12:21:00,69.6,51.7,29.97,ENE,73,8.0,11.0,53,0.00,,SKC,0.00,VWS V14.01,2013-05-06 16:21:00,
2013-05-06 12:27:00,70.1,52.2,29.96,NE,36,4.0,7.0,53,0.00,,SKC,0.00,VWS V14.01,2013-05-06 16:27:00,
2013-05-06 12:32:00,70.6,52.7,29.96,NE,54,2.0,7.0,53,0.00,,SKC,0.00,VWS V14.01,2013-05-06 16:32:00,
2013-05-06 12:37:00,70.4,52.0,29.96,ENE,59,7.0,7.0,52,0.00,,SKC,0.00,VWS V14.01,2013-05-06 16:37:00,
2013-05-06 12:42:00,70.1,52.2,29.96,ENE,74,2.0,7.0,53,0.00,,SKC,0.00,VWS V14.01,2013-05-06 16:42:00,
2013-05-06 12:47:00,70.3,51.9,29.96,ENE,63,7.0,7.0,52,0.00,,SKC,0.00,VWS V14.01,2013-05-06 16:47:00,
2013-05-06 12:52:00,70.4,52.5,29.96,NNE,23,6.0,7.0,53,0.00,,SKC,0.00,VWS V14.01,2013-05-06 16:52:00,
2013-05-06 12:57:00,70.4,53.5,29.96,East,81,0.0,5.0,55,0.00,,SKC,0.00,VWS V14.01,2013-05-06 16:57:00,
2013-05-06 13:02:00,70.0,51.6,29.96,ENE,77,1.0,10.0,52,0.00,,SKC,0.00,VWS V14.01,2013-05-06 17:02:00,
2013-05-06 13:07:00,70.6,52.7,29.95,ENE,75,3.0,9.0,53,0.00,,SKC,0.00,VWS V14.01,2013-05-06 17:07:00,
2013-05-06 13:12:00,71.3,52.8,29.96,ENE,76,3.0,11.0,52,0.00,,SKC,0.00,VWS V14.01,2013-05-06 17:12:00,
2013-05-06 13:17:00,71.5,53.5,29.95,ENE,69,0.0,4.0,53,0.00,,SKC,0.00,VWS V14.01,2013-05-06 17:17:00,
2013-05-06 13:22:00,71.3,53.3,29.95,ENE,71,8.0,8.0,53,0.00,,SKC,0.00,VWS V14.01,2013-05-06 17:22:00,
2013-05-06 13:27:00,71.3,52.3,29.95,East,85,2.0,9.0,51,0.00,,SKC,0.00,VWS V14.01,2013-05-06 17:27:00,
2013-05-06 13:32:00,71.1,52.6,29.95,East,83,3.0,9.0,52,0.00,,SKC,0.00,VWS V14.01,2013-05-06 17:32:00,
2013-05-06 13:37:00,71.1,52.6,29.95,East,87,6.0,10.0,52,0.00,,SKC,0.00,VWS V14.01,2013-05-06 17:37:00,
2013-05-06 13:42:00,71.1,52.6,29.95,East,101,6.0,6.0,52,0.00,,SKC,0.00,VWS V14.01,2013-05-06 17:42:00,
2013-05-06 13:47:00,71.3,51.7,29.95,NE,40,7.0,9.0,50,0.00,,SKC,0.00,VWS V14.01,2013-05-06 17:47:00,
2013-05-06 13:52:00,71.2,51.6,29.95,East,90,9.0,12.0,50,0.00,,SKC,0.00,VWS V14.01,2013-05-06 17:52:00,
2013-05-06 13:57:00,71.0,51.5,29.95,ENE,62,7.0,10.0,50,0.00,,SKC,0.00,VWS V14.01,2013-05-06 17:57:00,
2013-05-06 14:02:00,71.0,52.0,29.95,NE,44,1.0,3.0,51,0.00,,SKC,0.00,VWS V14.01,2013-05-06 18:02:00,
2013-05-06 14:07:00,70.9,51.9,29.95,ENE,61,1.0,4.0,51,0.00,,SKC,0.00,VWS V14.01,2013-05-06 18:07:00,
2013-05-06 14:12:00,70.9,51.9,29.95,ESE,113,7.0,8.0,51,0.00,,SKC,0.00,VWS V14.01,2013-05-06 18:12:00,
2013-05-06 14:17:00,70.7,52.8,29.95,East,93,7.0,10.0,53,0.00,,SKC,0.00,VWS V14.01,2013-05-06 18:17:00,
2013-05-06 14:22:00,70.6,51.6,29.95,ESE,109,4.0,8.0,51,0.00,,SKC,0.00,VWS V14.01,2013-05-06 18:22:00,
2013-05-06 14:27:00,70.8,51.8,29.95,East,83,3.0,11.0,51,0.00,,SKC,0.00,VWS V14.01,2013-05-06 18:27:00,
2013-05-06 14:32:00,70.9,52.4,29.94,East,83,3.0,6.0,52,0.00,,SKC,0.00,VWS V14.01,2013-05-06 18:32:00,
2013-05-06 14:37:00,70.9,52.9,29.94,East,96,7.0,7.0,53,0.00,,SKC,0.00,VWS V14.01,2013-05-06 18:37:00,
2013-05-06 14:42:00,71.1,51.5,29.94,ESE,115,10.0,11.0,50,0.00,,SKC,0.00,VWS V14.01,2013-05-06 18:42:00,
2013-05-06 14:47:00,70.9,52.9,29.94,SSE,150,4.0,8.0,53,0.00,,SKC,0.00,VWS V14.01,2013-05-06 18:47:00,
2013-05-06 14:52:00,71.3,52.3,29.94,ENE,62,2.0,3.0,51,0.00,,SKC,0.00,VWS V14.01,2013-05-06 18:52:00,
2013-05-06 14:57:00,71.5,51.4,29.94,East,80,6.0,9.0,49,0.00,,SKC,0.00,VWS V14.01,2013-05-06 18:57:00,
2013-05-06 15:02:00,71.4,51.3,29.94,ESE,109,8.0,8.0,49,0.00,,SKC,0.00,VWS V14.01,2013-05-06 19:02:00,
2013-05-06 15:08:00,71.6,53.1,29.94,East,101,6.0,7.0,52,0.00,,SKC,0.00,VWS V14.01,2013-05-06 19:08:00,
2013-05-06 15:13:00,71.8,51.6,29.94,NE,53,1.0,4.0,49,0.00,,SKC,0.00,VWS V14.01,2013-05-06 19:13:00,
2013-05-06 15:18:00,71.9,52.3,29.94,SE,136,2.0,5.0,50,0.00,,SKC,0.00,VWS V14.01,2013-05-06 19:18:00,
2013-05-06 15:23:00,72.1,51.3,29.93,ENE,76,3.0,4.0,48,0.00,,SKC,0.00,VWS V14.01,2013-05-06 19:23:00,
2013-05-06 15:28:00,72.4,52.2,29.93,NNE,29,5.0,8.0,49,0.00,,SKC,0.00,VWS V14.01,2013-05-06 19:28:00,
2013-05-06 15:33:00,72.5,51.7,29.93,ENE,73,2.0,6.0,48,0.00,,SKC,0.00,VWS V14.01,2013-05-06 19:33:00,
2013-05-06 15:38:00,72.2,50.9,29.93,ENE,75,2.0,2.0,47,0.00,,SKC,0.00,VWS V14.01,2013-05-06 19:38:00,
2013-05-06 15:43:00,71.7,50.4,29.93,ENE,78,2.0,4.0,47,0.00,,SKC,0.00,VWS V14.01,2013-05-06 19:43:00,
2013-05-06 15:48:00,71.7,51.5,29.93,NE,44,4.0,6.0,49,0.00,,SKC,0.00,VWS V14.01,2013-05-06 19:48:00,
2013-05-06 15:53:00,71.6,52.0,29.93,ENE,63,2.0,4.0,50,0.00,,SKC,0.00,VWS V14.01,2013-05-06 19:53:00,
2013-05-06 15:58:00,71.6,50.9,29.93,ENE,76,2.0,5.0,48,0.00,,SKC,0.00,VWS V14.01,2013-05-06 19:58:00,
2013-05-06 16:03:00,71.7,51.5,29.92,NE,51,0.0,2.0,49,0.00,,SKC,0.00,VWS V14.01,2013-05-06 20:03:00,
2013-05-06 16:08:00,72.0,52.4,29.92,East,98,3.0,3.0,50,0.00,,SKC,0.00,VWS V14.01,2013-05-06 20:08:00,
2013-05-06 16:13:00,72.1,55.1,29.92,SSE,147,1.0,5.0,55,0.00,,SKC,0.00,VWS V14.01,2013-05-06 20:13:00,
2013-05-06 16:18:00,72.1,50.2,29.92,NE,46,7.0,10.0,46,0.00,,SKC,0.00,VWS V14.01,2013-05-06 20:18:00,
2013-05-06 16:23:00,72.3,52.1,29.92,NE,43,6.0,6.0,49,0.00,,SKC,0.00,VWS V14.01,2013-05-06 20:23:00,
2013-05-06 16:28:00,72.4,51.0,29.92,ENE,59,5.0,9.0,47,0.00,,SKC,0.00,VWS V14.01,2013-05-06 20:28:00,
2013-05-06 16:33:00,72.3,51.0,29.92,East,82,6.0,10.0,47,0.00,,SKC,0.00,VWS V14.01,2013-05-06 20:33:00,
2013-05-06 16:38:00,72.2,50.3,29.91,ENE,57,9.0,10.0,46,0.00,,SKC,0.00,VWS V14.01,2013-05-06 20:38:00,
2013-05-06 16:43:00,72.1,55.1,29.92,SE,126,6.0,11.0,55,0.00,,SKC,0.00,VWS V14.01,2013-05-06 20:43:00,
2013-05-06 16:48:00,71.4,55.9,29.91,SSE,150,0.0,4.0,58,0.00,,SKC,0.00,VWS V14.01,2013-05-06 20:48:00,
2013-05-06 16:53:00,71.3,54.8,29.91,SSE,153,1.0,4.0,56,0.00,,SKC,0.00,VWS V14.01,2013-05-06 20:53:00,
2013-05-06 16:58:00,71.5,55.5,29.91,East,96,1.0,5.0,57,0.00,,SKC,0.00,VWS V14.01,2013-05-06 20:58:00,
2013-05-06 17:03:00,71.7,55.2,29.90,East,84,6.0,6.0,56,0.00,,SKC,0.00,VWS V14.01,2013-05-06 21:03:00,
2013-05-06 17:08:00,72.0,55.5,29.90,ESE,123,3.0,4.0,56,0.00,,SKC,0.00,VWS V14.01,2013-05-06 21:08:00,
2013-05-06 17:13:00,71.9,54.4,29.90,East,101,0.0,1.0,54,0.00,,SKC,0.00,VWS V14.01,2013-05-06 21:13:00,
2013-05-06 17:18:00,72.2,54.7,29.90,East,86,1.0,2.0,54,0.00,,SKC,0.00,VWS V14.01,2013-05-06 21:18:00,
2013-05-06 17:23:00,71.9,52.3,29.90,NE,38,7.0,9.0,50,0.00,,SKC,0.00,VWS V14.01,2013-05-06 21:23:00,
2013-05-06 17:28:00,71.8,52.2,29.90,NE,49,8.0,10.0,50,0.00,,SKC,0.00,VWS V14.01,2013-05-06 21:28:00,
2013-05-06 17:33:00,71.9,52.3,29.90,ENE,72,7.0,8.0,50,0.00,,SKC,0.00,VWS V14.01,2013-05-06 21:33:00,
2013-05-06 17:38:00,71.7,52.1,29.90,ENE,73,4.0,6.0,50,0.00,,SKC,0.00,VWS V14.01,2013-05-06 21:38:00,
2013-05-06 17:43:00,71.6,51.5,29.90,ENE,61,8.0,9.0,49,0.00,,SKC,0.00,VWS V14.01,2013-05-06 21:43:00,
2013-05-06 17:48:00,72.0,50.7,29.90,ENE,67,5.0,7.0,47,0.00,,SKC,0.00,VWS V14.01,2013-05-06 21:48:00,
2013-05-06 17:53:00,72.1,50.8,29.90,NE,49,9.0,10.0,47,0.00,,SKC,0.00,VWS V14.01,2013-05-06 21:53:00,
2013-05-06 17:59:00,71.9,50.6,29.90,ENE,59,5.0,10.0,47,0.00,,SKC,0.00,VWS V14.01,2013-05-06 21:59:00,
2013-05-06 18:04:00,71.8,51.1,29.90,NE,42,3.0,6.0,48,0.00,,SKC,0.00,VWS V14.01,2013-05-06 22:04:00,
2013-05-06 18:09:00,71.8,52.2,29.90,NE,36,7.0,7.0,50,0.00,,SKC,0.00,VWS V14.01,2013-05-06 22:09:00,
2013-05-06 18:14:00,71.8,51.1,29.90,NE,45,7.0,10.0,48,0.00,,SKC,0.00,VWS V14.01,2013-05-06 22:14:00,
2013-05-06 18:19:00,71.7,50.4,29.91,NE,53,4.0,6.0,47,0.00,,SKC,0.00,VWS V14.01,2013-05-06 22:19:00,
2013-05-06 18:24:00,71.5,50.8,29.91,NE,51,6.0,8.0,48,0.00,,SKC,0.00,VWS V14.01,2013-05-06 22:24:00,
2013-05-06 18:29:00,71.4,50.7,29.90,NE,42,2.0,5.0,48,0.00,,SKC,0.00,VWS V14.01,2013-05-06 22:29:00,
2013-05-06 18:34:00,71.3,51.2,29.90,NE,50,4.0,5.0,49,0.00,,SKC,0.00,VWS V14.01,2013-05-06 22:34:00,
2013-05-06 18:39:00,71.3,51.2,29.90,NE,49,5.0,8.0,49,0.00,,SKC,0.00,VWS V14.01,2013-05-06 22:39:00,
2013-05-06 18:44:00,71.3,50.6,29.90,NE,46,1.0,7.0,48,0.00,,SKC,0.00,VWS V14.01,2013-05-06 22:44:00,
2013-05-06 18:49:00,71.3,50.6,29.90,NNE,16,6.0,9.0,48,0.00,,SKC,0.00,VWS V14.01,2013-05-06 22:49:00,
2013-05-06 18:54:00,71.3,51.2,29.90,NNE,19,8.0,9.0,49,0.00,,SKC,0.00,VWS V14.01,2013-05-06 22:54:00,
2013-05-06 18:59:00,71.1,51.0,29.90,NE,51,7.0,10.0,49,0.00,,SKC,0.00,VWS V14.01,2013-05-06 22:59:00,
2013-05-06 19:04:00,70.8,50.7,29.90,NE,51,4.0,9.0,49,0.00,,SKC,0.00,VWS V14.01,2013-05-06 23:04:00,
2013-05-06 19:09:00,70.7,50.6,29.91,ENE,71,7.0,8.0,49,0.00,,SKC,0.00,VWS V14.01,2013-05-06 23:09:00,
2013-05-06 19:14:00,70.6,50.5,29.91,ENE,70,12.0,12.0,49,0.00,,SKC,0.00,VWS V14.01,2013-05-06 23:14:00,
2013-05-06 19:19:00,70.5,51.0,29.91,East,82,6.0,6.0,50,0.00,,SKC,0.00,VWS V14.01,2013-05-06 23:19:00,
2013-05-06 19:24:00,70.4,50.9,29.91,NE,54,2.0,7.0,50,0.00,,SKC,0.00,VWS V14.01,2013-05-06 23:24:00,
2013-05-06 19:29:00,70.3,51.3,29.91,NE,56,5.0,6.0,51,0.00,,SKC,0.00,VWS V14.01,2013-05-06 23:29:00,
2013-05-06 19:34:00,70.1,50.6,29.91,ENE,63,2.0,5.0,50,0.00,,SKC,0.00,VWS V14.01,2013-05-06 23:34:00,
2013-05-06 19:39:00,69.9,51.0,29.91,ENE,65,1.0,5.0,51,0.00,,SKC,0.00,VWS V14.01,2013-05-06 23:39:00,
2013-05-06 19:44:00,69.7,51.3,29.91,NE,45,5.0,9.0,52,0.00,,SKC,0.00,VWS V14.01,2013-05-06 23:44:00,
2013-05-06 19:49:00,69.5,51.1,29.91,ENE,70,8.0,11.0,52,0.00,,SKC,0.00,VWS V14.01,2013-05-06 23:49:00,
2013-05-06 19:54:00,69.3,51.5,29.91,ENE,69,8.0,8.0,53,0.00,,SKC,0.00,VWS V14.01,2013-05-06 23:54:00,
2013-05-06 19:59:00,69.0,51.2,29.92,ENE,63,7.0,8.0,53,0.00,,SKC,0.00,VWS V14.01,2013-05-06 23:59:00,
2013-05-06 20:04:00,68.9,51.1,29.92,ENE,63,4.0,8.0,53,0.00,,SKC,0.00,VWS V14.01,2013-05-07 00:04:00,
2013-05-06 20:10:00,68.7,51.4,29.92,ENE,65,2.0,8.0,54,0.00,,SKC,0.00,VWS V14.01,2013-05-07 00:10:00,
2013-05-06 20:15:00,68.4,51.6,29.92,ENE,77,3.0,7.0,55,0.00,,SKC,0.00,VWS V14.01,2013-05-07 00:15:00,
2013-05-06 20:20:00,68.0,51.7,29.92,NE,54,5.0,8.0,56,0.00,,SKC,0.00,VWS V14.01,2013-05-07 00:20:00,
2013-05-06 20:25:00,67.7,51.5,29.92,NE,43,5.0,8.0,56,0.00,,SKC,0.00,VWS V14.01,2013-05-07 00:25:00,
2013-05-06 20:30:00,67.5,51.8,29.92,ENE,67,4.0,10.0,57,0.00,,SKC,0.00,VWS V14.01,2013-05-07 00:30:00,
2013-05-06 20:35:00,67.2,51.5,29.93,NE,55,7.0,10.0,57,0.00,,SKC,0.00,VWS V14.01,2013-05-07 00:35:00,
2013-05-06 20:40:00,67.1,51.4,29.93,NE,50,7.0,9.0,57,0.00,,SKC,0.00,VWS V14.01,2013-05-07 00:40:00,
2013-05-06 20:45:00,67.0,51.3,29.93,NE,53,8.0,11.0,57,0.00,,SKC,0.00,VWS V14.01,2013-05-07 00:45:00,
2013-05-06 20:50:00,66.8,51.6,29.93,ENE,66,7.0,8.0,58,0.00,,SKC,0.00,VWS V14.01,2013-05-07 00:50:00,
2013-05-06 20:55:00,66.5,51.3,29.93,NE,43,7.0,7.0,58,0.00,,SKC,0.00,VWS V14.01,2013-05-07 00:55:00,
2013-05-06 21:00:00,66.3,51.1,29.93,ENE,59,3.0,5.0,58,0.00,,SKC,0.00,VWS V14.01,2013-05-07 01:00:00,
2013-05-06 21:05:00,66.1,50.9,29.93,NE,39,7.0,12.0,58,0.00,,SKC,0.00,VWS V14.01,2013-05-07 01:05:00,
2013-05-06 21:10:00,65.9,50.7,29.93,NE,54,5.0,8.0,58,0.00,,SKC,0.00,VWS V14.01,2013-05-07 01:10:00,
2013-05-06 21:15:00,65.6,50.9,29.94,NNE,28,5.0,8.0,59,0.00,,SKC,0.00,VWS V14.01,2013-05-07 01:15:00,
2013-05-06 21:20:00,65.4,50.7,29.94,ENE,63,7.0,7.0,59,0.00,,SKC,0.00,VWS V14.01,2013-05-07 01:20:00,
2013-05-06 21:25:00,65.2,50.5,29.94,NE,48,6.0,11.0,59,0.00,,SKC,0.00,VWS V14.01,2013-05-07 01:25:00,
2013-05-06 21:30:00,65.0,50.3,29.94,NE,47,6.0,7.0,59,0.00,,SKC,0.00,VWS V14.01,2013-05-07 01:30:00,
2013-05-06 21:35:00,64.9,50.2,29.94,NE,41,5.0,9.0,59,0.00,,SKC,0.00,VWS V14.01,2013-05-07 01:35:00,
2013-05-06 21:40:00,64.8,50.6,29.94,NE,44,3.0,6.0,60,0.00,,SKC,0.00,VWS V14.01,2013-05-07 01:40:00,
2013-05-06 21:45:00,64.6,50.4,29.94,NNE,31,5.0,7.0,60,0.00,,SKC,0.00,VWS V14.01,2013-05-07 01:45:00,
2013-05-06 21:50:00,64.6,50.0,29.94,ENE,63,7.0,8.0,59,0.00,,SKC,0.00,VWS V14.01,2013-05-07 01:50:00,
2013-05-06 21:55:00,64.5,50.3,29.94,NE,40,2.0,6.0,60,0.00,,SKC,0.00,VWS V14.01,2013-05-07 01:55:00,
2013-05-06 22:00:00,64.4,49.8,29.95,NE,49,5.0,8.0,59,0.00,,SKC,0.00,VWS V14.01,2013-05-07 02:00:00,
2013-05-06 22:05:00,64.3,49.7,29.95,ENE,63,7.0,9.0,59,0.00,,SKC,0.00,VWS V14.01,2013-05-07 02:05:00,
2013-05-06 22:10:00,64.2,49.6,29.95,NE,54,5.0,7.0,59,0.00,,SKC,0.00,VWS V14.01,2013-05-07 02:10:00,
2013-05-06 22:15:00,64.0,49.4,29.95,ENE,57,4.0,7.0,59,0.00,,SKC,0.00,VWS V14.01,2013-05-07 02:15:00,
2013-05-06 22:20:00,63.8,49.7,29.95,NE,38,5.0,8.0,60,0.00,,SKC,0.00,VWS V14.01,2013-05-07 02:20:00,
2013-05-06 22:25:00,63.6,49.5,29.95,NE,47,4.0,7.0,60,0.00,,SKC,0.00,VWS V14.01,2013-05-07 02:25:00,
2013-05-06 22:30:00,63.3,49.6,29.95,NE,47,3.0,8.0,61,0.00,,SKC,0.00,VWS V14.01,2013-05-07 02:30:00,
2013-05-06 22:35:00,63.1,49.5,29.95,NE,47,5.0,6.0,61,0.00,,SKC,0.00,VWS V14.01,2013-05-07 02:35:00,
2013-05-06 22:40:00,62.8,49.6,29.95,NE,55,3.0,4.0,62,0.00,,SKC,0.00,VWS V14.01,2013-05-07 02:40:00,
2013-05-06 22:45:00,62.6,49.4,29.96,ENE,68,4.0,4.0,62,0.00,,SKC,0.00,VWS V14.01,2013-05-07 02:45:00,
2013-05-06 22:50:00,62.4,49.2,29.96,ENE,57,2.0,5.0,62,0.00,,SKC,0.00,VWS V14.01,2013-05-07 02:50:00,
2013-05-06 22:55:00,62.3,49.1,29.96,NE,55,4.0,5.0,62,0.00,,SKC,0.00,VWS V14.01,2013-05-07 02:55:00,
2013-05-06 23:00:00,62.2,49.0,29.96,NE,50,3.0,8.0,62,0.00,,SKC,0.00,VWS V14.01,2013-05-07 03:00:00,
2013-05-06 23:05:00,62.1,48.5,29.96,NE,54,4.0,5.0,61,0.00,,SKC,0.00,VWS V14.01,2013-05-07 03:05:00,
2013-05-06 23:10:00,62.0,48.8,29.96,NE,56,3.0,4.0,62,0.00,,SKC,0.00,VWS V14.01,2013-05-07 03:10:00,
2013-05-06 23:16:00,61.9,48.8,29.96,ENE,71,0.0,3.0,62,0.00,,SKC,0.00,VWS V14.01,2013-05-07 03:16:00,
2013-05-06 23:21:00,61.7,49.0,29.96,NE,52,6.0,6.0,63,0.00,,SKC,0.00,VWS V14.01,2013-05-07 03:21:00,
2013-05-06 23:26:00,61.6,48.9,29.95,ENE,59,4.0,5.0,63,0.00,,SKC,0.00,VWS V14.01,2013-05-07 03:26:00,
2013-05-06 23:31:00,61.4,48.7,29.95,NE,36,1.0,4.0,63,0.00,,SKC,0.00,VWS V14.01,2013-05-07 03:31:00,
2013-05-06 23:36:00,61.3,48.6,29.95,NE,45,3.0,3.0,63,0.00,,SKC,0.00,VWS V14.01,2013-05-07 03:36:00,
2013-05-06 23:41:00,61.2,48.5,29.95,NE,52,2.0,4.0,63,0.00,,SKC,0.00,VWS V14.01,2013-05-07 03:41:00,
2013-05-06 23:46:00,61.1,48.8,29.95,NE,53,2.0,4.0,64,0.00,,SKC,0.00,VWS V14.01,2013-05-07 03:46:00,
2013-05-06 23:51:00,60.9,48.7,29.95,NE,49,0.0,3.0,64,0.00,,SKC,0.00,VWS V14.01,2013-05-07 03:51:00,
2013-05-06 23:56:00,60.8,48.1,29.95,NE,55,3.0,5.0,63,0.00,,SKC,0.00,VWS V14.01,2013-05-07 03:56:00,